Kununurra, Australia

1:32 PM AWST on March 24, 2017 (GMT +0800)
Kununurra

Weather History for YPKU - August, 2013

Change the Weather History Date:

Wednesday, August 7, 2013

  Actual Average Record
Temperature  
Mean Temperature 68 °F -  
Max Temperature 91 °F - - ()
Min Temperature 45 °F - - ()
Cooling Degree Days 3    
Growing Degree Days 18 (Base 50)    
Moisture  
Dew Point 30 °F    
Average Humidity 39    
Maximum Humidity 87    
Minimum Humidity 4    
Precipitation  
Precipitation 0.00 in - - ()
Sea Level Pressure  
Sea Level Pressure 29.97 in    
Wind  
Wind Speed 4 mph ()    
Max Wind Speed 17 mph    
Max Gust Speed -    
Visibility 8.0 miles    
Events      
T = Trace of Precipitation, MM = Missing Value Source: Averaged Metar Reports

Daily Weather History Graph

Daily Weather History Graph

Search for Another Location

Airport or City:

Trip Planner

Search our weather history database for the weather conditions in past years. The results will help you decide how hot, cold, wet, or windy it might be!

Date:

Astronomy

Aug. 07, 2013 Rise Set
Actual Time 5:46 AM AWST 5:15 PM AWST
Civil Twilight 5:24 AM AWST 5:37 PM AWST
Nautical Twilight 4:58 AM AWST 6:03 PM AWST
Astronomical Twilight 4:32 AM AWST 6:29 PM AWST
Moon 5:38 AM AWST (8/7) 5:34 PM AWST (8/7)
Length of Visible Light 12h 13m
Length of Day
11h 29m
New Moon, 0% of the Moon is Illuminated
Aug 7
New Moon
Aug 14
First Quarter
Aug 21
Full
Aug 28
Last Quarter
Sep 5
New

Hourly Weather History & Observations

Time (AWST) Temp. Dew Point Humidity Pressure Visibility Wind Dir Wind Speed Gust Speed Precip Events Conditions
12:00 AM 56 °F 44 °F 53% 29.99 in - East 3.5 mph - -  
12:00 AM 55.4 °F 42.8 °F 63% 29.98 in - East 3.5 mph - N/A   Unknown
12:30 AM 55.4 °F 48.2 °F 77% 29.98 in - South 3.5 mph - N/A   Unknown
1:00 AM 53.6 °F 44.6 °F 72% 29.98 in - South 3.5 mph - N/A   Unknown
1:30 AM 51.8 °F 46.4 °F 82% 29.95 in - Calm Calm - N/A   Unknown
2:00 AM 51 °F 43 °F 67% 29.97 in - Calm Calm - -  
2:00 AM 51.8 °F 42.8 °F 71% 29.95 in - Calm Calm - N/A   Unknown
2:30 AM 50.0 °F 44.6 °F 82% 29.95 in - SSW 3.5 mph - N/A   Unknown
3:00 AM 49 °F 44 °F 76% 29.97 in - SSW 3.5 mph - -  
3:00 AM 50.0 °F 44.6 °F 82% 29.98 in - SSW 3.5 mph - N/A   Unknown
3:30 AM 50.0 °F 46.4 °F 87% 29.98 in - SSW 4.6 mph - N/A   Unknown
4:00 AM 50.0 °F 44.6 °F 82% 29.98 in - SSW 3.5 mph - N/A   Unknown
4:30 AM 48.2 °F 44.6 °F 87% 29.98 in - Calm Calm - N/A   Unknown
5:00 AM 48 °F 44 °F 83% 29.99 in - SSW 1.2 mph - -  
5:00 AM 48.2 °F 44.6 °F 87% 29.98 in - SSW 1.2 mph - N/A   Unknown
5:30 AM 48.2 °F 44.6 °F 87% 30.01 in - Calm Calm - N/A   Unknown
6:00 AM 48 °F 42 °F 73% 30.01 in 6 mi ENE 3.5 mph - -   Partly Cloudy
6:00 AM 48.2 °F 42.8 °F 82% 30.01 in - ENE 3.5 mph - N/A   Unknown
6:30 AM 50.0 °F 44.6 °F 82% 30.01 in - ESE 3.5 mph - N/A   Unknown
7:00 AM 57.2 °F 46.4 °F 67% 30.04 in - Calm Calm - N/A   Unknown
7:30 AM 68.0 °F 39.2 °F 35% 30.04 in - Calm Calm - N/A   Unknown
8:00 AM 72 °F 37 °F 17% 30.05 in - Calm Calm - -  
8:00 AM 71.6 °F 37.4 °F 29% 30.04 in - Calm Calm - N/A   Unknown
8:30 AM 75.2 °F 33.8 °F 22% 30.04 in - South 4.6 mph - N/A   Unknown
9:00 AM 80 °F 16 °F 4% 30.05 in 6 mi ESE 8.1 mph - -   Partly Cloudy
9:00 AM 80.6 °F 15.8 °F 9% 30.04 in - ESE 8.1 mph - N/A   Unknown
9:30 AM 84.2 °F 6.8 °F 5% 30.04 in - ESE 12.7 mph - N/A   Unknown
10:00 AM 84.2 °F 5.0 °F 5% 30.04 in - ESE 12.7 mph - N/A   Unknown
10:30 AM 86.0 °F 6.8 °F 5% 30.01 in - ESE 13.8 mph - N/A   Unknown
11:00 AM 86 °F 4 °F 4% 30.00 in - ESE 16.1 mph - -  
11:00 AM 86.0 °F 3.2 °F 4% 30.01 in - ESE 16.1 mph - N/A   Unknown
11:30 AM 86.0 °F 12.2 °F 6% 29.98 in - ESE 5.8 mph - N/A   Unknown
12:00 PM 86 °F 17 °F 4% 29.97 in - ESE 10.4 mph - -  
12:00 PM 86.0 °F 15.8 °F 7% 29.95 in - ESE 10.4 mph - N/A   Unknown
12:30 PM 89.6 °F -2.2 °F 4% 29.95 in - East 17.3 mph - N/A   Unknown
1:00 PM 87.8 °F 5.0 °F 4% 29.92 in - ESE 12.7 mph - N/A   Unknown
1:30 PM 89.6 °F -0.4 °F 4% 29.92 in - East 11.5 mph - N/A   Unknown
2:00 PM 89 °F 2 °F 4% 29.90 in - ESE 11.5 mph - -  
2:00 PM 89.6 °F 1.4 °F 4% 29.89 in - ESE 11.5 mph - N/A   Unknown
2:30 PM 89.6 °F 6.8 °F 4% 29.89 in - SSE 9.2 mph - N/A   Unknown
3:00 PM 90 °F 8 °F 4% 29.89 in 12 mi ESE 6.9 mph - -   Partly Cloudy
3:00 PM 89.6 °F 6.8 °F 4% 29.89 in - ESE 6.9 mph - N/A   Unknown
3:30 PM 89.6 °F -0.4 °F 4% 29.89 in - ESE 10.4 mph - N/A   Unknown
4:00 PM 89.6 °F 3.2 °F 4% 29.89 in - ESE 10.4 mph - N/A   Unknown
4:30 PM 87.8 °F 14.0 °F 6% 29.89 in - ESE 6.9 mph - N/A   Unknown
5:00 PM 84 °F 19 °F 4% 29.90 in - ESE 5.8 mph - -  
5:00 PM 84.2 °F 19.4 °F 9% 29.89 in - ESE 5.8 mph - N/A   Unknown
5:30 PM 80.6 °F 26.6 °F 14% 29.92 in - SSE 5.8 mph - N/A   Unknown
6:00 PM 75 °F 32 °F 12% 29.92 in - SSE 4.6 mph - -  
6:00 PM 75.2 °F 32.0 °F 21% 29.92 in - SSE 4.6 mph - N/A   Unknown
6:30 PM 71.6 °F 35.6 °F 27% 29.92 in - SE 3.5 mph - N/A   Unknown
7:00 PM 66.2 °F 37.4 °F 35% 29.95 in - Calm Calm - N/A   Unknown
7:30 PM 62.6 °F 37.4 °F 39% 29.95 in - Calm Calm - N/A   Unknown
8:00 PM 61 °F 38 °F 31% 29.96 in - Calm Calm - -  
8:00 PM 60.8 °F 37.4 °F 42% 29.95 in - Calm Calm - N/A   Unknown
8:30 PM 60.8 °F 41.0 °F 48% 29.95 in - Calm Calm - N/A   Unknown
9:00 PM 59 °F 42 °F 43% 29.97 in - Calm Calm - -  
9:00 PM 59.0 °F 42.8 °F 55% 29.95 in - Calm Calm - N/A   Unknown
9:30 PM 59.0 °F 44.6 °F 59% 29.95 in - Calm Calm - N/A   Unknown
10:00 PM 57.2 °F 46.4 °F 67% 29.95 in - Calm Calm - N/A   Unknown
10:30 PM 57.2 °F 44.6 °F 63% 29.95 in - Calm Calm - N/A   Unknown
11:00 PM 57 °F 45 °F 53% 29.97 in - Calm Calm - -  
11:00 PM 57.2 °F 44.6 °F 63% 29.98 in - Calm Calm - N/A   Unknown
11:30 PM 55.4 °F 44.6 °F 67% 29.98 in - Calm Calm - N/A   Unknown